Weather History for Shawano, WI

Change the Weather History Date:

Friday, January 4, 2013

  Actual Average (KGRB) Record (KGRB)
Temperature  
Mean Temperature 24 °F 17 °F  
Max Temperature 32 °F 25 °F 46 °F (2007)
Min Temperature 15 °F 10 °F -18 °F (1919)
Degree Days  
Heating Degree Days 42 48  
Month to date heating degree days 192  
Since 1 July heating degree days 3282  
Cooling Degree Days 0 0  
Month to date cooling degree days 0  
Year to date cooling degree days 0  
Moisture  
Dew Point 15 °F    
Average Humidity 69    
Maximum Humidity 86    
Minimum Humidity 55    
Precipitation  
Precipitation 0.00 in 0.04 in 0.97 in (1929)
Month to date precipitation 0.16  
Year to date precipitation 0.16  
Snow  
Snow 0.00 in 0.40 in 8.80 in (1982)
Month to date snowfall 1.6  
Since 1 July snowfall 18.9  
Snow Depth -    
Sea Level Pressure  
Sea Level Pressure 30.02 in    
Wind  
Wind Speed 10 mph (WSW)    
Max Wind Speed 15 mph    
Max Gust Speed 22 mph    
Visibility 10 miles    
Events      
T = Trace of Precipitation, MM = Missing Value Source: NWS Daily Summary

Daily Weather History Graph

Daily Weather History Graph

Search for Another Location

Airport:

Trip Planner

Search our weather history database for the weather conditions in past years. The results will help you decide how hot, cold, wet, or windy it might be!

Date:

Astronomy

Jan. 04, 2013 Rise Set
Actual Time 7:31 AM CST 4:27 PM CST
Civil Twilight 6:58 AM CST 5:00 PM CST
Nautical Twilight 6:21 AM CST 5:37 PM CST
Astronomical Twilight 5:46 AM CST 6:12 PM CST
Moon No Moon Rise 10:54 AM CST (1/4)
Length of Visible Light 10h 02m
Length of Day
8h 55m
Waning Gibbous, 55% of the Moon is Illuminated
Jan 4
Waning Gibbous
Jan 4
Last Quarter
Jan 11
New
Jan 18
First Quarter
Jan 26
Full

Hourly Weather History & Observations

Time (CST) Temp. Windchill Dew Point Humidity Pressure Visibility Wind Dir Wind Speed Gust Speed Precip Events Conditions
12:15 AM 15.8 °F 1.4 °F 8.6 °F 73% 30.01 in 10.0 mi WSW 13.8 mph 19.6 mph N/A   Clear
12:35 AM 15.8 °F 0.9 °F 8.6 °F 73% 30.01 in 10.0 mi WSW 15.0 mph 19.6 mph N/A   Clear
12:55 AM 15.8 °F 0.9 °F 8.6 °F 73% 30.01 in 10.0 mi WSW 15.0 mph 18.4 mph N/A   Clear
1:15 AM 15.8 °F 0.9 °F 10.4 °F 79% 30.00 in 10.0 mi WSW 15.0 mph 21.9 mph N/A   Clear
1:35 AM 17.6 °F 5.0 °F 10.4 °F 73% 29.99 in 10.0 mi WSW 11.5 mph 20.7 mph N/A   Clear
1:55 AM 17.6 °F 3.7 °F 10.4 °F 73% 29.98 in 10.0 mi WSW 13.8 mph 20.7 mph N/A   Clear
2:15 AM 17.6 °F 3.2 °F 10.4 °F 73% 29.97 in 10.0 mi WSW 15.0 mph - N/A   Clear
2:35 AM 15.8 °F 2.1 °F 10.4 °F 79% 29.96 in 10.0 mi WSW 12.7 mph 20.7 mph N/A   Clear
2:55 AM 15.8 °F 2.1 °F 10.4 °F 79% 29.96 in 10.0 mi WSW 12.7 mph 18.4 mph N/A   Clear
3:15 AM 15.8 °F 2.1 °F 10.4 °F 79% 29.96 in 10.0 mi WSW 12.7 mph - N/A   Clear
5:55 AM 15.8 °F 3.4 °F 10.4 °F 79% 29.96 in 10.0 mi WSW 10.4 mph - N/A   Clear
6:15 AM 15.8 °F 4.2 °F 10.4 °F 79% 29.96 in 10.0 mi WSW 9.2 mph - N/A   Clear
6:35 AM 15.8 °F 3.4 °F 10.4 °F 79% 29.96 in 10.0 mi WSW 10.4 mph - N/A   Clear
6:55 AM 15.8 °F 4.2 °F 10.4 °F 79% 29.96 in 10.0 mi WSW 9.2 mph - N/A   Clear
7:15 AM 15.8 °F 5.1 °F 10.4 °F 79% 29.95 in 10.0 mi WSW 8.1 mph - N/A   Clear
7:35 AM 15.8 °F 4.2 °F 10.4 °F 79% 29.96 in 10.0 mi WSW 9.2 mph - N/A   Clear
7:55 AM 15.8 °F 3.4 °F 10.4 °F 79% 29.95 in 10.0 mi WSW 10.4 mph - N/A   Clear
8:15 AM 17.6 °F 7.3 °F 10.4 °F 73% 29.96 in 10.0 mi West 8.1 mph - N/A   Clear
8:35 AM 17.6 °F 7.3 °F 10.4 °F 73% 29.97 in 10.0 mi WSW 8.1 mph - N/A   Clear
8:55 AM 17.6 °F 5.7 °F 12.2 °F 79% 29.97 in 10.0 mi WSW 10.4 mph - N/A   Clear
9:15 AM 19.4 °F 9.5 °F 12.2 °F 74% 29.97 in 10.0 mi WSW 8.1 mph - N/A   Clear
9:35 AM 19.4 °F 9.5 °F 12.2 °F 74% 29.98 in 10.0 mi West 8.1 mph 16.1 mph N/A   Clear
9:55 AM 21.2 °F 10.9 °F 12.2 °F 68% 29.99 in 10.0 mi West 9.2 mph 19.6 mph N/A   Clear
10:15 AM 23.0 °F 12.4 °F 14.0 °F 68% 29.99 in 10.0 mi West 10.4 mph 17.3 mph N/A   Clear
10:35 AM 23.0 °F 13.9 °F 14.0 °F 68% 29.99 in 10.0 mi West 8.1 mph - N/A   Clear
10:55 AM 24.8 °F 15.3 °F 14.0 °F 64% 29.98 in 10.0 mi West 9.2 mph - N/A   Clear
11:15 AM 26.6 °F 18.2 °F 14.0 °F 59% 29.98 in 10.0 mi West 8.1 mph - N/A   Clear
11:35 AM 26.6 °F 16.2 °F 15.8 °F 64% 29.97 in 10.0 mi West 11.5 mph 18.4 mph N/A   Clear
11:55 AM 28.4 °F 18.5 °F 15.8 °F 59% 29.96 in 10.0 mi West 11.5 mph - N/A   Clear
12:15 PM 28.4 °F 19.1 °F 15.8 °F 59% 29.96 in 10.0 mi West 10.4 mph 18.4 mph N/A   Clear
12:55 PM 30.2 °F 21.3 °F 17.6 °F 60% 29.96 in 10.0 mi West 10.4 mph 17.3 mph N/A   Clear
1:15 PM 32.0 °F 23.0 °F 17.6 °F 55% 29.96 in 10.0 mi WSW 11.5 mph 17.3 mph N/A   Clear
1:35 PM 32.0 °F 24.8 °F 17.6 °F 55% 29.95 in 10.0 mi WSW 8.1 mph - N/A   Clear
1:55 PM 32.0 °F 24.8 °F 17.6 °F 55% 29.96 in 10.0 mi WSW 8.1 mph - N/A   Clear
2:15 PM 32.0 °F 24.8 °F 17.6 °F 55% 29.96 in 10.0 mi WSW 8.1 mph - N/A   Clear
2:35 PM 32.0 °F 25.6 °F 17.6 °F 55% 29.97 in 10.0 mi WSW 6.9 mph - N/A   Clear
2:55 PM 32.0 °F 24.2 °F 19.4 °F 60% 29.98 in 10.0 mi WSW 9.2 mph - N/A   Clear
3:15 PM 32.0 °F 24.2 °F 19.4 °F 60% 29.99 in 10.0 mi WSW 9.2 mph - N/A   Clear
3:35 PM 32.0 °F 24.8 °F 19.4 °F 60% 29.99 in 10.0 mi WSW 8.1 mph - N/A   Clear
3:55 PM 32.0 °F 24.8 °F 19.4 °F 60% 30.00 in 10.0 mi WSW 8.1 mph - N/A   Clear
4:15 PM 32.0 °F 24.8 °F 19.4 °F 60% 30.01 in 10.0 mi WSW 8.1 mph - N/A   Clear
4:35 PM 32.0 °F 24.8 °F 19.4 °F 60% 30.02 in 10.0 mi WSW 8.1 mph - N/A   Clear
4:55 PM 30.2 °F 22.6 °F 19.4 °F 64% 30.03 in 10.0 mi WSW 8.1 mph - N/A   Clear
5:15 PM 30.2 °F 23.4 °F 19.4 °F 64% 30.04 in 10.0 mi WSW 6.9 mph - N/A   Clear
5:35 PM 30.2 °F 22.6 °F 17.6 °F 60% 30.05 in 10.0 mi WSW 8.1 mph - N/A   Clear
5:55 PM 30.2 °F 23.4 °F 17.6 °F 60% 30.06 in 10.0 mi WSW 6.9 mph - N/A   Clear
6:15 PM 28.4 °F 21.2 °F 17.6 °F 64% 30.06 in 10.0 mi WSW 6.9 mph - N/A   Clear
6:55 PM 28.4 °F 22.2 °F 17.6 °F 64% 30.09 in 10.0 mi WSW 5.8 mph - N/A   Clear
7:15 PM 28.4 °F 21.2 °F 17.6 °F 64% 30.09 in 10.0 mi WSW 6.9 mph - N/A   Clear
7:35 PM 28.4 °F 21.2 °F 17.6 °F 64% 30.09 in 10.0 mi WSW 6.9 mph - N/A   Clear
7:55 PM 28.4 °F 21.2 °F 17.6 °F 64% 30.10 in 10.0 mi WSW 6.9 mph - N/A   Clear
8:15 PM 26.6 °F 20.0 °F 17.6 °F 69% 30.10 in 10.0 mi WSW 5.8 mph - N/A   Clear
8:35 PM 26.6 °F 20.0 °F 17.6 °F 69% 30.10 in 10.0 mi WSW 5.8 mph - N/A   Clear
8:55 PM 26.6 °F 21.2 °F 17.6 °F 69% 30.11 in 10.0 mi WSW 4.6 mph - N/A   Clear
9:15 PM 26.6 °F 21.2 °F 17.6 °F 69% 30.11 in 10.0 mi WSW 4.6 mph - N/A   Clear
9:35 PM 26.6 °F 21.2 °F 17.6 °F 69% 30.11 in 10.0 mi WSW 4.6 mph - N/A   Clear
9:55 PM 24.8 °F 20.5 °F 17.6 °F 74% 30.12 in 10.0 mi WSW 3.5 mph - N/A   Clear
10:15 PM 23.0 °F 18.4 °F 17.6 °F 80% 30.12 in 10.0 mi WSW 3.5 mph - N/A   Clear
10:35 PM 23.0 °F 17.0 °F 15.8 °F 74% 30.12 in 10.0 mi WSW 4.6 mph - N/A   Clear
10:55 PM 23.0 °F 18.4 °F 15.8 °F 74% 30.12 in 10.0 mi WSW 3.5 mph - N/A   Clear
11:15 PM 17.6 °F - 14.0 °F 86% 30.12 in 10.0 mi Calm Calm - N/A   Clear
11:35 PM 21.2 °F 14.9 °F 15.8 °F 80% 30.13 in 10.0 mi WSW 4.6 mph - N/A   Clear
11:55 PM 21.2 °F 13.6 °F 15.8 °F 80% 30.14 in 10.0 mi WSW 5.8 mph - N/A   Clear